Poker Online | DewaPoker | Situs Poker Uang Asli | Domino Qiu Qiu Online

togel online

Jackpot

Texas Poker Multi Jackpot System

Kini Telah hadir Jackpot SUPER ROYAL FLUSH

Kini Telah hadir Jackpot 2000 (khusus table VIP keatas).

Ikutilah global jackpot yang tersedia di system kami, dengan system jackpot terbaru dan pertama di indonesia, anda dapat membeli jackpot dengan harga 100 rupiah saja dan menangkan hadiahnya hingga puluhan juta rupiah.

Jackpot bukanlah suatu keharusan untuk dibeli, namun kami memberikan suatu fitur tambahan untuk member tercinta dari www.feraripoker.com.

Terdapat tiga pilihan harga jackpot yang bisa anda beli yaitu :100,500,1000 dan 2000(khusus table VIP Keatas) rupiah.

Hadiah dari Multi jackpot system www.feraripoker.com

  1. full house x 10 harga jackpot yang anda beli.
      (contoh:anda membeli 1000 maka:1000 X10 = 10.000)
  2. four of kind x 250 harga jackpot yang anda beli
      (contoh:anda membeli 1000 maka:1000 X250 = 250.000)
  3. Straight flush x 1200
      (contoh:anda membeli 1000 maka:1000 X1200 = 1.200.000)
  4. Royal flush x 10000 harga jackpot yang anda beli
      (contoh:anda membeli 1000 maka:1000 X10000 = 10.000.000)
  5. SUPER ROYAL FLUSH x 30000 harga jackpot yang anda beli
      (contoh:anda membeli 1000 maka:1000 X30000 = 30.000.000)

Kondisi kartu

  1. full house adalah kondisi kartu dimana kartu anda dan kartu tengah dengan total 7 kartu bisa mendapatkan nilai 5 kartu dengan kombinasi 1 tris(three of kind) dan 1 pair, contoh 3 kartu 10 dan 2 kartu 5
  2. Four of kind adalah kondisi kartu dimana kartu anda dan kartu tengah dengan total 7 kartu bisa mendapatkan nilai 5 kartu dengan kombinasi 4 kartu yang sama jumlah dan 1 kartu apapun juga contoh anda mendapatkan 4 buah kartu angka 3 dan 1 kartu apapun.
  3. Staright flush adalah kondisi kartu dimana kartu anda dan kartu tengah dengan total 7 kartu bisa mendapatkan nilai 5 kartu dengan kombinasi seri / staright dengan kembang yang sama contoh : urutan kartu dari angka 5, 6, 7, 8 , 9 10 dengan kembang yg sama misalnya as hati
  4. Royal flush adalah kondisi kartu dimana kartu anda dan kartu tengah dengan total 7 kartu bisa mendapatkan nilai 5 kartu dengan kombinasi seri / staright dengan kembang yang sama tetapi kartu tersebut haruslah dimulai dari 10. contoh 10, Queen, Jack, King dan aces dengan kembang yang sama
  5. Super Royal flush adalah kondisi kartu dimana Kedua kartu anda digabung dengan 3 kartu pertama meja haruslah royal flush. contoh kartu anda 10,Queen kembang sama dan 3 kartu pertama meja adalah Jack, King dan aces dengan kembang yang sama

Demikian adalah penjelasan dari Multi Jackpot www.feraripoker.com terima kasih dan selamat bermain salam hoki dari kami

Texas Poker Jackpot Winner

TOP SUPER ROYAL FLUSH
No.TanggalNamaPriceWin
126/05 05:27CYCLOPGG01Super Royal flush3,000,000
226/05 04:36WULL_KKSuper Royal flush6,000,000
325/05 20:21SIKAT26Super Royal flush6,000,000
425/05 16:23ABOOTTSuper Royal flush60,000,000
525/05 15:54DR1NKNGSuper Royal flush15,000,000
TOP ROYAL FLUSH
No.TanggalNamaPriceWin
126/05 05:31VODA8JRoyal flush5,000,000
226/05 04:58BACOTT09Royal flush10,000,000
326/05 04:58SHER5522Royal flush20,000,000
426/05 04:58BKICRoyal flush10,000,000
526/05 04:57GABSEN12Royal flush5,000,000
TOP STRAIGHT FLUSH
No.TanggalNamaPriceWin
126/05 05:34POLONG_MASStraight Flush120,000
226/05 05:34LODAYAKUStraight Flush600,000
326/05 05:3074CKPOTStraight Flush240,000
426/05 05:28FARIAFStraight Flush120,000
526/05 05:28NINIAK11Straight Flush240,000
LATEST JACKPOT
No.TanggalNamaPriceWin
126/05 05:34WIHAFull House20,000
226/05 05:34JAMILAA1Full House2,000
326/05 05:34TICO19Full House2,000
426/05 05:34JUTA999Full House2,000
526/05 05:34AYU850Full House1,000
626/05 05:34SANTOS7777Full House2,000
726/05 05:34V4NMOR3Full House10,000
826/05 05:34POLONG_MASStraight Flush120,000
926/05 05:34RIAN2136Full House10,000
1026/05 05:34BRONTAX_94Full House10,000
1126/05 05:34DEZTA15Full House5,000
1226/05 05:34KLIWON669Full House1,000
1326/05 05:34ANAMKUS2Full House2,000
1426/05 05:34BOLTUS82Full House10,000
1526/05 05:34RIYADI07Full House10,000
1626/05 05:34ALKING99RPFull House2,000
1726/05 05:34DOGOL83Full House10,000
1826/05 05:34KEM88Full House5,000
1926/05 05:34E940A5B0Full House10,000
2026/05 05:34R35TU_IBUFull House5,000
2126/05 05:34KEMPLU1993Full House2,000
2226/05 05:34PRASYAFull House5,000
2326/05 05:34FHOTO901Full House2,000
2426/05 05:34PAKAMIR88Full House10,000
2526/05 05:34FF6A29FDFull House5,000
2626/05 05:34XRYBAHBZRUFull House5,000
2726/05 05:34ABIZAR212Full House2,000
2826/05 05:34TDBYASVUYIFull House5,000
2926/05 05:34F8245099Full House2,000
3026/05 05:34MAMAM_13Full House2,000
3126/05 05:34CEP0T73Full House2,000
3226/05 05:34MBELCU88Full House2,000
3326/05 05:34RISONTYSONFull House2,000
3426/05 05:34GREENPOOHFull House5,000
3526/05 05:34GIL4LUNDROFull House5,000
3626/05 05:34DION370Full House2,000
3726/05 05:34MODIFBRIOFull House10,000
3826/05 05:34BELGTEMPFull House10,000
3926/05 05:34TOBAT78TTTFull House2,000
4026/05 05:34LODAYAKUStraight Flush600,000
4126/05 05:34ANARKI2299Full House1,000
4226/05 05:34KACONK13Full House5,000
4326/05 05:33FRAULESJPFull House10,000
4426/05 05:33SHAKIRA28Full House5,000
4526/05 05:33FGFTRKKYFull House1,000
4626/05 05:33STOONEEHFull House2,000
4726/05 05:33K9D3UEGDHFFull House2,000
4826/05 05:33BLAO21Full House20,000
4926/05 05:33RF0517Full House20,000
5026/05 05:33ALTZAFull House1,000

Domino Multi Jackpot System

Ikutilah global jackpot yang tersedia di system kami, dengan system jackpot terbaru dan pertama di indonesia, anda dapat membeli jackpot dengan harga 100 rupiah saja dan menangkan hadiahnya hingga puluhan juta rupiah.

Jackpot bukanlah suatu keharusan untuk dibeli, namun kami memberikan suatu fitur tambahan untuk member tercinta dari www.feraripoker.com.

Terdapat tiga pilihan harga jackpot yang bisa anda beli yaitu :100,500 dan 1000 rupiah.

Hadiah dari Multi jackpot system www.feraripoker.com

  1. Murni Kecil x 50 harga jackpot yang anda beli.
      (contoh:anda membeli 1000 maka:1000 X 50 = 50.000)
  2. Murni Besar x 50 harga jackpot yang anda beli
      (contoh:anda membeli 1000 maka:1000 X 50 = 50.000)
  3. BALAK x 100 harga jackpot yang anda beli
      (contoh:anda membeli 1000 maka:1000 X 100 = 100.000)
  4. ENAM DEWA x 6666 harga jackpot yang anda beli
      (contoh:anda membeli 1000 maka:1000 X 6666 = 6.666.000)

Demikian adalah penjelasan dari Multi Jackpot www.feraripoker.com terima kasih dan selamat bermain salam hoki dari kami

Domino Jackpot Winner

TOP ENAM DEWA
No.TanggalNamaPriceWin
126/05 03:59REJEKIYOKOmurni enam6,666,000
226/05 00:35JANOKO86murni enam666,600
325/05 22:32AGENT88554murni enam3,333,000
425/05 21:57ANAK_DEPOTmurni enam666,600
525/05 20:06YETNO97murni enam6,666,000
TOP BALAK
No.TanggalNamaPriceWin
126/05 05:30SANDRY1812balak100,000
226/05 05:25KHAMBOTIbalak10,000
326/05 05:21PENCENG90balak100,000
426/05 05:21TR4N5balak100,000
526/05 05:17KALJU420balak50,000
LATEST JACKPOT
No.TanggalNamaPriceWin
126/05 05:34MDRKING86murni kecil50,000
226/05 05:33B464DA57murni kecil50,000
326/05 05:33ALEXWONG86lucky9910,000
426/05 05:33SR_GOKILmurni kecil50,000
526/05 05:32PITAK_murni besar50,000
626/05 05:32B703BBF4murni kecil50,000
726/05 05:31OSAKAVIPmurni kecil50,000
826/05 05:31GEESZREL83lucky99200,000
926/05 05:30SANDRY1812balak100,000
1026/05 05:29GROGOTCLUBmurni kecil50,000
1126/05 05:29S3DOT1murni besar25,000
1226/05 05:29WID4Y4T1murni kecil50,000
1326/05 05:27A9USLIMmurni besar25,000
1426/05 05:27HESTY90murni kecil50,000
1526/05 05:26COMOSBAMBUmurni kecil50,000
1626/05 05:26CARI7Pmurni besar50,000
1726/05 05:26WID4Y4T1murni besar50,000
1826/05 05:26MOLTOWANGImurni kecil5,000
1926/05 05:25KHAMBOTIbalak10,000
2026/05 05:25EAFE2C46murni kecil5,000
2126/05 05:24BOYAYULIANmurni kecil50,000
2226/05 05:22B0FCQGZFU8murni kecil50,000
2326/05 05:22VVY123murni besar25,000
2426/05 05:22NYONK72murni besar25,000
2526/05 05:22AGUN1195murni besar5,000
2626/05 05:22LOPIAH87murni besar25,000
2726/05 05:21AYU_PUTRIImurni kecil50,000
2826/05 05:21PENCENG90balak100,000
2926/05 05:21TR4N5balak100,000
3026/05 05:20PERAJACAGEmurni kecil25,000
3126/05 05:20C3F7C023lucky992,500
3226/05 05:20BEBEC98murni besar50,000
3326/05 05:19DM173388lucky992,500
3426/05 05:19CIKEPEN00lucky9910,000
3526/05 05:19MISTER86murni kecil50,000
3626/05 05:17KALJU420balak50,000
3726/05 05:16DEN271murni kecil50,000
3826/05 05:16GANASSS02murni kecil50,000
3926/05 05:16D34RMANmurni kecil50,000
4026/05 05:15PITAK_murni kecil50,000
4126/05 05:15C1BELmurni besar50,000
4226/05 05:15TOGITEBEmurni besar5,000
4326/05 05:14CAUL2016murni besar50,000
4426/05 05:13ABAYOS99murni kecil50,000
4526/05 05:13ALIBABA22murni besar5,000
4626/05 05:13ESCOBAR222murni besar25,000
4726/05 05:13ANDRIRAGILmurni besar50,000
4826/05 05:13C4101CD9murni besar50,000
4926/05 05:11C4101CD9lucky9950,000
5026/05 05:11STARLET07lucky9910,000

Ceme Multi Jackpot System

Jackpot dilihat dari gabungan kartu pemain dengan kartu bandar. Bandar harus membeli jackpot sebanyak jumlah player yang sedang duduk. Sebagai contoh bila terdapat 3 pemain duduk bermain, dan bandar memutuskan untuk membeli jackpot Rp 1.000, maka pada periode tersebut bandar akan membeli jackpot sebanyak 3xRp1.000 = Rp3.000.

Jackpot bukanlah suatu keharusan untuk dibeli, namun kami memberikan suatu fitur tambahan untuk member tercinta dari www.feraripoker.com.

Terdapat tiga pilihan harga jackpot yang bisa anda beli yaitu :100,500 dan 1000 rupiah.

Hadiah dari Multi jackpot system www.feraripoker.com

  1. Murni Kecil x 50 harga jackpot yang anda beli.
      (contoh:anda membeli 1000 maka:1000 X 50 = 50.000)
  2. Murni Besar x 50 harga jackpot yang anda beli
      (contoh:anda membeli 1000 maka:1000 X 50 = 50.000)
  3. BALAK x 200 harga jackpot yang anda beli
      (contoh:anda membeli 1000 maka:1000 X 200 = 200.000)
  4. ENAM DEWA x 6666 harga jackpot yang anda beli
      (contoh:anda membeli 1000 maka:1000 X 6666 = 6.666.000)

Demikian adalah penjelasan dari Multi Jackpot www.feraripoker.com terima kasih dan selamat bermain salam hoki dari kami

Ceme Jackpot Winner

TOP ENAM DEWA
No.TanggalNamaPriceWin
126/05 05:27POHOIDmurni enam6,666,000
226/05 05:18GOSA123murni enam6,666,000
326/05 04:51SAHAKIKUmurni enam6,666,000
426/05 04:46BABANKKQ1murni enam6,666,000
526/05 04:46WS45RD9XQGmurni enam6,666,000
TOP BALAK
No.TanggalNamaPriceWin
126/05 05:34HAPPY688balak200,000
226/05 05:34IKASOPIAHbalak20,000
326/05 05:33JKG9balak200,000
426/05 05:33ASUKOE18balak20,000
526/05 05:33KLUNCET99balak20,000
LATEST JACKPOT
No.TanggalNamaPriceWin
126/05 05:34AHMED89murni kecil50,000
226/05 05:34DWHURQLBU6murni kecil5,000
326/05 05:34DWICANDRAmurni kecil50,000
426/05 05:34LOTBALImurni kecil50,000
526/05 05:34BIYEY49murni besar50,000
626/05 05:34GOLUND10murni besar50,000
726/05 05:34DANANG38murni kecil5,000
826/05 05:34HAPPY688balak200,000
926/05 05:34IKASOPIAHbalak20,000
1026/05 05:34OYOL888murni kecil50,000
1126/05 05:34SARISUSmurni besar50,000
1226/05 05:34HALILAmurni besar50,000
1326/05 05:33TRE3DIATASmurni kecil5,000
1426/05 05:33YOUNG92murni kecil25,000
1526/05 05:33EDHOT32murni besar50,000
1626/05 05:33KHURUT123murni kecil50,000
1726/05 05:33CUKIL899murni kecil50,000
1826/05 05:33JKG9balak200,000
1926/05 05:33ASUKOE18balak20,000
2026/05 05:33WIWINBFmurni kecil50,000
2126/05 05:33DXUQZM0NSXmurni kecil50,000
2226/05 05:33COCOTMU7murni kecil50,000
2326/05 05:33KLUNCET99balak20,000
2426/05 05:33WERENG_GOTmurni besar50,000
2526/05 05:33MAGNETO00murni besar50,000
2626/05 05:32HUEHUE1murni besar50,000
2726/05 05:32COLDWINDmurni besar5,000
2826/05 05:32MZ12murni besar50,000
2926/05 05:32BONJOVI666murni besar5,000
3026/05 05:32DWBTNY3386murni kecil50,000
3126/05 05:32BALAKA08murni kecil5,000
3226/05 05:32BIYEY49murni kecil50,000
3326/05 05:32JEFRRY11murni kecil50,000
3426/05 05:32MANSE25murni kecil50,000
3526/05 05:32FZ9EB69O1Lmurni kecil50,000
3626/05 05:31WOLULHAZmurni kecil50,000
3726/05 05:31POO00OOPmurni kecil50,000
3826/05 05:31DOAUMIEmurni kecil50,000
3926/05 05:31JOKERMIDUNmurni kecil25,000
4026/05 05:31VIVIN999murni kecil5,000
4126/05 05:31ZAER168balak200,000
4226/05 05:31WERENG_GOTmurni besar50,000
4326/05 05:31ALFARO008murni besar50,000
4426/05 05:30BERRYS4Pbalak100,000
4526/05 05:30SHANDSmurni besar50,000
4626/05 05:30SAVAGE11murni kecil5,000
4726/05 05:30ASL44N09murni kecil50,000
4826/05 05:30SAIDMOCH88murni kecil25,000
4926/05 05:30DXUQZM0NSXbalak200,000
5026/05 05:29RNLDRBN9Smurni besar50,000